User: anonymous   Login
Location: Laguna de la Cañada del Gallo
(40.3974°N, 5.2096°W)
Time: 04:41:12
(UTC+00:00)
Language:

Cosmos 1300 Rocket - Orbit

View from above orbital plane
View from above orbital plane
View from above satellite
View from above satellite

Ground track
Ground track

The orbit data is extracted from the following two-line orbital elements,

1 12786U 81082B   24174.19730060  .00000645  00000-0  70945-4 0  9991
2 12786  82.4886  72.0350 0018729  75.6923 284.6371 14.85954988315021
Epoch (UTC): 22 June 2024 04:44:06
Eccentricity: 0.0018729
inclination: 82.4886°
perigee height: 597 km
apogee height: 623 km
right ascension of ascending node: 72.0350°
argument of perigee: 75.6923°
revolutions per day: 14.85954988
mean anomaly at epoch: 284.6371°
orbit number at epoch: 31502

The dashed part of the orbit path shows where the satellite is in the earth's shadow,  

DLR